sat.trackr.live / text

‹ back to catalog

ONEWEB-0691

NORAD 61599 · 2024-188F

PAYLOAD ACTIVE UNKNOWN

§ Identity

Operator
Country
UK
Launch date
2024-10-20
Launch site
AFWTR
Launch vehicle
Mass (kg)
RCS (m²)

Purposes: comms

External: N2YO · Heavens-Above · Gunter

§ Orbital elements

Epoch: 2026-05-25T01:52:13.342080Z

Period
109.81 min
Inclination
87.8928°
Eccentricity
0.0002148
Mean motion
13.11415036 rev/d
Perigee alt
1,216.1 km
Apogee alt
1,219.3 km
Semi-major
7,595.8 km
B*
-1.4742e-3
RAAN
25.5653°
Arg perigee
86.8113°
Mean anomaly
273.3261°
Rev number
8,145

§ Raw data

ONEWEB-06911 61599U 24188F   26145.07793220 -.00000510  00000+0 -14742-2 0  99982 61599  87.8928  25.5653 0002148  86.8113 273.3261 13.11415036 81459

JSON: /api/v1/satellites/61599 · /tle

For live sub-satellite position, see the globe view (requires WebGL).

§ Visibility from observer

Set your observer location to see the next 7 days of passes ≥ 10°. The values pass through the URL so the page stays shareable.

No JS? Fill the form by hand. The geolocation button needs JavaScript.